| time (UTC) | temp C | wind direction | speed KPH | gust KPH | rain 1hr cm | rain 24hr cm | rain mn cm | humidity % | barometer mb |
| 20260905211114 | 12 | 245 | 4.8 | 22.5 | 0.08 | 0.15 | 0.15 | 88 | 1019.0 |
| 20260905210003 | 13 | 290 | 6.4 | 19.3 | 0.03 | 0.13 | 0.13 | 82 | 1019.0 |
| 20260905205403 | 15 | 316 | 9.7 | 29.0 | 0.00 | 0.10 | 0.10 | 73 | 1019.1 |
| 20260905204513 | 16 | 274 | 9.7 | 29.0 | 0.00 | 0.10 | 0.10 | 61 | 1019.2 |
| 20260905203603 | 16 | 235 | 4.8 | 29.0 | 0.00 | 0.10 | 0.10 | 60 | 1018.3 |
| 20260905202703 | 16 | 223 | 3.2 | 8.0 | 0.00 | 0.10 | 0.10 | 62 | 1017.9 |
| 20260905201803 | 16 | 228 | 3.2 | 8.0 | 0.00 | 0.10 | 0.10 | 62 | 1017.7 |
| 20260905200903 | 16 | 257 | 1.6 | 6.4 | 0.00 | 0.10 | 0.10 | 62 | 1017.6 |
| 20260905200003 | 16 | 234 | 1.6 | 6.4 | 0.00 | 0.10 | 0.10 | 62 | 1017.9 |
| 20260905195409 | 16 | 223 | 1.6 | 6.4 | 0.00 | 0.10 | 0.10 | 61 | 1017.6 |
| 20260905194713 | 16 | 223 | 3.2 | 8.0 | 0.00 | 0.10 | 0.10 | 61 | 1017.6 |
| 20260905193813 | 16 | 232 | 3.2 | 8.0 | 0.00 | 0.10 | 0.10 | 61 | 1017.6 |
| 20260905192703 | 16 | 225 | 1.6 | 6.4 | 0.00 | 0.10 | 0.10 | 60 | 1017.6 |
| 20260905191803 | 16 | 221 | 1.6 | 8.0 | 0.00 | 0.10 | 0.10 | 61 | 1017.7 |
| 20260905190903 | 16 | 231 | 1.6 | 6.4 | 0.00 | 0.10 | 0.10 | 61 | 1017.6 |
| 20260905190003 | 16 | 214 | 1.6 | 8.0 | 0.00 | 0.10 | 0.10 | 62 | 1017.7 |
| 20260905185403 | 16 | 201 | 1.6 | 4.8 | 0.00 | 0.10 | 0.10 | 61 | 1017.7 |
| 20260905184713 | 16 | 185 | 1.6 | 6.4 | 0.00 | 0.10 | 0.10 | 62 | 1017.6 |
| 20260905183603 | 17 | 219 | 1.6 | 8.0 | 0.00 | 0.10 | 0.10 | 60 | 1017.4 |
| 20260905182703 | 17 | 233 | 3.2 | 6.4 | 0.00 | 0.10 | 0.10 | 60 | 1017.4 |
| 20260905181803 | 17 | 243 | 3.2 | 8.0 | 0.00 | 0.10 | 0.10 | 59 | 1017.6 |
| 20260905180903 | 17 | 246 | 3.2 | 9.7 | 0.00 | 0.10 | 0.10 | 59 | 1017.6 |
| 20260905180003 | 17 | 226 | 3.2 | 9.7 | 0.00 | 0.10 | 0.10 | 59 | 1017.4 |
| 20260905175404 | 17 | 216 | 1.6 | 6.4 | 0.00 | 0.10 | 0.10 | 59 | 1017.5 |
| 20260905174503 | 17 | 228 | 1.6 | 8.0 | 0.00 | 0.10 | 0.10 | 58 | 1017.1 |
| 20260905173621 | 17 | 220 | 1.6 | 11.3 | 0.00 | 0.10 | 0.10 | 57 | 1017.3 |
| 20260905172703 | 18 | 211 | 3.2 | 11.3 | 0.00 | 0.10 | 0.10 | 54 | 1017.1 |
| 20260905171803 | 18 | 219 | 3.2 | 11.3 | 0.00 | 0.10 | 0.10 | 54 | 1017.0 |
| 20260905170903 | 18 | 221 | 4.8 | 11.3 | 0.00 | 0.10 | 0.10 | 53 | 1016.9 |
| 20260905170003 | 18 | 235 | 4.8 | 9.7 | 0.00 | 0.10 | 0.10 | 52 | 1016.9 |
| 20260905165403 | 19 | 237 | 4.8 | 12.9 | 0.00 | 0.10 | 0.10 | 51 | 1016.8 |
| 20260905164503 | 19 | 236 | 4.8 | 14.5 | 0.00 | 0.10 | 0.10 | 50 | 1016.9 |
| 20260905163603 | 19 | 239 | 6.4 | 12.9 | 0.00 | 0.10 | 0.10 | 49 | 1017.0 |
| 20260905162703 | 20 | 237 | 6.4 | 20.9 | 0.00 | 0.10 | 0.10 | 48 | 1016.7 |
| 20260905161803 | 20 | 230 | 6.4 | 20.9 | 0.00 | 0.10 | 0.10 | 47 | 1016.7 |
| 20260905160903 | 20 | 261 | 4.8 | 14.5 | 0.00 | 0.10 | 0.10 | 49 | 1016.5 |
| 20260905160003 | 19 | 235 | 4.8 | 14.5 | 0.00 | 0.10 | 0.10 | 51 | 1016.7 |
| 20260905155403 | 20 | 240 | 6.4 | 17.7 | 0.00 | 0.10 | 0.10 | 50 | 1016.2 |
| 20260905154503 | 20 | 256 | 4.8 | 16.1 | 0.00 | 0.10 | 0.10 | 49 | 1016.5 |
| 20260905153603 | 20 | 259 | 6.4 | 17.7 | 0.00 | 0.10 | 0.10 | 49 | 1016.4 |
| 20260905152703 | 20 | 259 | 6.4 | 17.7 | 0.00 | 0.10 | 0.10 | 49 | 1016.2 |
| 20260905151803 | 20 | 272 | 6.4 | 19.3 | 0.00 | 0.10 | 0.10 | 47 | 1016.3 |
| 20260905150903 | 20 | 257 | 6.4 | 17.7 | 0.00 | 0.10 | 0.10 | 46 | 1016.3 |
| 20260905150003 | 20 | 255 | 4.8 | 17.7 | 0.00 | 0.10 | 0.10 | 46 | 1016.1 |
| 20260905145403 | 20 | 247 | 6.4 | 19.3 | 0.00 | 0.10 | 0.10 | 48 | 1016.1 |
| 20260905144503 | 20 | 237 | 6.4 | 17.7 | 0.00 | 0.10 | 0.10 | 45 | 1016.2 |
| 20260905143603 | 20 | 233 | 4.8 | 19.3 | 0.00 | 0.10 | 0.10 | 45 | 1015.9 |
| 20260905142703 | 21 | 246 | 6.4 | 24.1 | 0.00 | 0.10 | 0.10 | 44 | 1016.2 |
| 20260905141803 | 21 | 242 | 8.0 | 24.1 | 0.00 | 0.10 | 0.10 | 44 | 1016.1 |
| 20260905140903 | 20 | 234 | 9.7 | 29.0 | 0.00 | 0.10 | 0.10 | 47 | 1016.3 |
| 20260905140212 | 21 | 248 | 8.0 | 29.0 | 0.00 | 0.10 | 0.10 | 45 | 1016.3 |
| 20260905135614 | 21 | 273 | 6.4 | 17.7 | 0.00 | 0.10 | 0.10 | 45 | 1016.2 |
| 20260905134503 | 21 | 258 | 6.4 | 19.3 | 0.00 | 0.10 | 0.10 | 45 | 1016.2 |
| 20260905133603 | 21 | 247 | 8.0 | 29.0 | 0.00 | 0.10 | 0.10 | 44 | 1015.9 |
| 20260905132703 | 21 | 246 | 8.0 | 24.1 | 0.00 | 0.10 | 0.10 | 43 | 1016.1 |
| 20260905132013 | 21 | 268 | 8.0 | 19.3 | 0.00 | 0.10 | 0.10 | 45 | 1015.9 |
| 20260905130903 | 21 | 248 | 9.7 | 30.6 | 0.00 | 0.10 | 0.10 | 45 | 1015.9 |
| 20260905130214 | 20 | 265 | 8.0 | 24.1 | 0.00 | 0.10 | 0.10 | 45 | 1015.9 |
| 20260905125403 | 21 | 268 | 8.0 | 25.7 | 0.00 | 0.10 | 0.10 | 45 | 1016.1 |
| 20260905124503 | 20 | 264 | 8.0 | 20.9 | 0.00 | 0.10 | 0.10 | 47 | 1016.3 |
| 20260905123603 | 20 | 251 | 6.4 | 20.9 | 0.00 | 0.10 | 0.10 | 52 | 1016.3 |
| 20260905122703 | 20 | 265 | 6.4 | 17.7 | 0.00 | 0.10 | 0.10 | 50 | 1016.2 |
| 20260905121803 | 20 | 285 | 6.4 | 19.3 | 0.00 | 0.10 | 0.10 | 51 | 1016.2 |
| 20260905120903 | 21 | 260 | 6.4 | 17.7 | 0.00 | 0.10 | 0.10 | 49 | 1015.8 |
| 20260905120003 | 21 | 250 | 8.0 | 22.5 | 0.00 | 0.10 | 0.10 | 49 | 1015.9 |
| 20260905115404 | 20 | 271 | 8.0 | 19.3 | 0.00 | 0.10 | 0.10 | 50 | 1015.9 |
| 20260905114503 | 20 | 254 | 8.0 | 20.9 | 0.00 | 0.10 | 0.10 | 51 | 1016.3 |
| 20260905113603 | 20 | 255 | 6.4 | 27.4 | 0.00 | 0.10 | 0.10 | 51 | 1015.9 |
| 20260905112703 | 20 | 249 | 8.0 | 29.0 | 0.00 | 0.10 | 0.10 | 52 | 1015.9 |
| 20260905111803 | 20 | 258 | 6.4 | 27.4 | 0.00 | 0.10 | 0.10 | 49 | 1015.9 |
| 20260905111114 | 20 | 278 | 9.7 | 27.4 | 0.00 | 0.10 | 0.10 | 51 | 1015.9 |
| 20260905110003 | 21 | 242 | 8.0 | 20.9 | 0.00 | 0.10 | 0.10 | 51 | 1015.8 |
| 20260905105403 | 20 | 258 | 9.7 | 27.4 | 0.00 | 0.10 | 0.10 | 50 | 1015.8 |
| 20260905104503 | 19 | 261 | 8.0 | 33.8 | 0.00 | 0.10 | 0.10 | 52 | 1015.9 |
| 20260905103603 | 19 | 274 | 8.0 | 19.3 | 0.00 | 0.10 | 0.10 | 55 | 1016.1 |
| 20260905102703 | 19 | 264 | 6.4 | 19.3 | 0.00 | 0.10 | 0.10 | 57 | 1015.9 |
| 20260905101803 | 18 | 264 | 8.0 | 35.4 | 0.00 | 0.10 | 0.10 | 57 | 1015.9 |
| 20260905100903 | 19 | 270 | 8.0 | 25.7 | 0.00 | 0.10 | 0.10 | 59 | 1016.1 |
| 20260905100003 | 19 | 254 | 8.0 | 30.6 | 0.00 | 0.10 | 0.10 | 59 | 1015.7 |
| 20260905095403 | 18 | 239 | 8.0 | 30.6 | 0.00 | 0.10 | 0.10 | 60 | 1015.6 |
| 20260905094503 | 18 | 248 | 6.4 | 19.3 | 0.00 | 0.10 | 0.10 | 61 | 1015.7 |
| 20260905093603 | 18 | 231 | 8.0 | 20.9 | 0.00 | 0.10 | 0.10 | 60 | 1015.9 |
| 20260905092703 | 18 | 270 | 6.4 | 19.3 | 0.00 | 0.10 | 0.10 | 64 | 1015.8 |
| 20260905092014 | 18 | 266 | 6.4 | 19.3 | 0.00 | 0.10 | 0.10 | 65 | 1015.8 |
| 20260905090903 | 18 | 229 | 6.4 | 16.1 | 0.00 | 0.10 | 0.10 | 62 | 1015.8 |
| 20260905090003 | 17 | 246 | 4.8 | 22.5 | 0.00 | 0.10 | 0.10 | 67 | 1016.1 |
| 20260905085614 | 18 | 254 | 6.4 | 17.7 | 0.00 | 0.10 | 0.10 | 67 | 1016.1 |
| 20260905084713 | 17 | 245 | 6.4 | 19.3 | 0.00 | 0.10 | 0.10 | 68 | 1015.7 |
| 20260905083813 | 17 | 249 | 6.4 | 19.3 | 0.00 | 0.10 | 0.10 | 69 | 1015.9 |
| 20260905082703 | 17 | 241 | 8.0 | 20.9 | 0.00 | 0.10 | 0.10 | 72 | 1015.8 |
| 20260905082013 | 17 | 247 | 6.4 | 17.7 | 0.00 | 0.10 | 0.10 | 71 | 1015.9 |
| 20260905080903 | 16 | 257 | 6.4 | 19.3 | 0.00 | 0.10 | 0.10 | 75 | 1015.9 |
| 20260905080003 | 16 | 263 | 4.8 | 25.7 | 0.00 | 0.10 | 0.10 | 78 | 1015.9 |
| 20260905075614 | 16 | 255 | 4.8 | 25.7 | 0.00 | 0.10 | 0.10 | 77 | 1015.6 |
| 20260905074713 | 16 | 252 | 4.8 | 17.7 | 0.00 | 0.10 | 0.10 | 78 | 1015.7 |
| 20260905073603 | 16 | 236 | 6.4 | 22.5 | 0.00 | 0.10 | 0.10 | 80 | 1015.3 |
| 20260905072703 | 16 | 239 | 4.8 | 12.9 | 0.00 | 0.10 | 0.10 | 82 | 1015.3 |
| 20260905071803 | 16 | 236 | 4.8 | 14.5 | 0.00 | 0.10 | 0.10 | 83 | 1015.3 |
| 20260905070903 | 16 | 223 | 4.8 | 12.9 | 0.00 | 0.10 | 0.10 | 83 | 1015.1 |
| 20260905070003 | 16 | 231 | 4.8 | 17.7 | 0.00 | 0.10 | 0.10 | 84 | 1015.0 |
| 20260905065403 | 16 | 234 | 4.8 | 16.1 | 0.00 | 0.10 | 0.10 | 84 | 1015.3 |
| 20260905064503 | 16 | 232 | 4.8 | 9.7 | 0.00 | 0.10 | 0.10 | 84 | 1014.6 |
| 20260905063603 | 15 | 218 | 4.8 | 14.5 | 0.00 | 0.10 | 0.10 | 84 | 1014.8 |
| 20260905062703 | 16 | 223 | 4.8 | 14.5 | 0.00 | 0.10 | 0.10 | 85 | 1014.7 |
| 20260905061803 | 15 | 220 | 4.8 | 19.3 | 0.00 | 0.10 | 0.10 | 84 | 1014.7 |
| 20260905060903 | 16 | 214 | 4.8 | 19.3 | 0.00 | 0.10 | 0.10 | 85 | 1014.4 |
| 20260905060003 | 16 | 213 | 4.8 | 14.5 | 0.00 | 0.10 | 0.10 | 85 | 1014.7 |
| 20260905055613 | 15 | 213 | 4.8 | 14.5 | 0.03 | 0.10 | 0.10 | 86 | 1014.6 |
| 20260905054503 | 15 | 210 | 4.8 | 16.1 | 0.03 | 0.10 | 0.10 | 87 | 1014.3 |
| 20260905053603 | 15 | 216 | 3.2 | 12.9 | 0.03 | 0.10 | 0.10 | 88 | 1014.0 |
| 20260905052913 | 15 | 221 | 4.8 | 14.5 | 0.03 | 0.10 | 0.10 | 88 | 1013.8 |
| 20260905051803 | 15 | 225 | 4.8 | 14.5 | 0.03 | 0.10 | 0.10 | 87 | 1014.0 |
| 20260905050903 | 15 | 238 | 4.8 | 16.1 | 0.03 | 0.10 | 0.10 | 87 | 1013.9 |
| 20260905050003 | 16 | 218 | 4.8 | 14.5 | 0.00 | 0.08 | 0.08 | 86 | 1013.8 |
| 20260905045403 | 16 | 232 | 6.4 | 14.5 | 0.00 | 0.08 | 0.08 | 86 | 1014.0 |
| 20260905044503 | 16 | 233 | 4.8 | 20.9 | 0.00 | 0.08 | 0.08 | 87 | 1013.8 |
| 20260905043603 | 16 | 221 | 4.8 | 14.5 | 0.00 | 0.08 | 0.08 | 86 | 1013.7 |
| 20260905042703 | 16 | 219 | 4.8 | 9.7 | 0.00 | 0.08 | 0.08 | 86 | 1013.7 |
| 20260905041803 | 16 | 208 | 4.8 | 11.3 | 0.00 | 0.08 | 0.08 | 87 | 1013.6 |
| 20260905040903 | 16 | 213 | 3.2 | 11.3 | 0.00 | 0.08 | 0.08 | 87 | 1013.6 |
| 20260905040003 | 16 | 206 | 3.2 | 9.7 | 0.00 | 0.08 | 0.08 | 87 | 1013.1 |
| 20260905035612 | 16 | 202 | 3.2 | 9.7 | 0.00 | 0.08 | 0.08 | 87 | 1013.0 |
| 20260905034503 | 16 | 225 | 3.2 | 9.7 | 0.00 | 0.08 | 0.08 | 87 | 1013.1 |
| 20260905033603 | 16 | 220 | 3.2 | 14.5 | 0.00 | 0.08 | 0.08 | 86 | 1013.2 |
| 20260905032703 | 16 | 209 | 3.2 | 9.7 | 0.00 | 0.08 | 0.08 | 86 | 1012.7 |
| 20260905031803 | 16 | 208 | 3.2 | 11.3 | 0.00 | 0.08 | 0.08 | 86 | 1012.4 |
| 20260905031113 | 16 | 225 | 4.8 | 9.7 | 0.00 | 0.08 | 0.08 | 85 | 1012.5 |
| 20260905030003 | 16 | 227 | 4.8 | 16.1 | 0.00 | 0.08 | 0.08 | 85 | 1012.5 |
| 20260905025614 | 16 | 217 | 4.8 | 17.7 | 0.00 | 0.08 | 0.08 | 85 | 1012.7 |
| 20260905024503 | 16 | 211 | 3.2 | 11.3 | 0.00 | 0.08 | 0.08 | 86 | 1012.8 |
| 20260905023603 | 16 | 226 | 4.8 | 14.5 | 0.00 | 0.08 | 0.08 | 86 | 1012.7 |
| 20260905022703 | 16 | 225 | 4.8 | 14.5 | 0.00 | 0.08 | 0.08 | 86 | 1012.4 |
| 20260905022013 | 16 | 215 | 4.8 | 14.5 | 0.00 | 0.08 | 0.08 | 86 | 1012.2 |
| 20260905020903 | 16 | 209 | 4.8 | 9.7 | 0.00 | 0.08 | 0.08 | 85 | 1012.2 |
| 20260905020003 | 16 | 194 | 3.2 | 9.7 | 0.00 | 0.08 | 0.08 | 84 | 1011.8 |
| 20260905015403 | 16 | 207 | 3.2 | 8.0 | 0.00 | 0.08 | 0.08 | 83 | 1012.0 |
| 20260905014504 | 16 | 214 | 3.2 | 9.7 | 0.00 | 0.08 | 0.08 | 82 | 1012.2 |
| 20260905013603 | 16 | 231 | 4.8 | 14.5 | 0.03 | 0.08 | 0.08 | 82 | 1012.0 |
| 20260905012703 | 16 | 214 | 4.8 | 14.5 | 0.05 | 0.08 | 0.08 | 83 | 1012.4 |
| 20260905011803 | 16 | 220 | 4.8 | 9.7 | 0.05 | 0.08 | 0.08 | 84 | 1012.4 |
| 20260905010903 | 16 | 219 | 4.8 | 11.3 | 0.08 | 0.08 | 0.08 | 85 | 1012.1 |
| 20260905010003 | 16 | 232 | 4.8 | 14.5 | 0.08 | 0.08 | 0.08 | 87 | 1012.1 |
| 20260905005403 | 16 | 230 | 4.8 | 12.9 | 0.05 | 0.05 | 0.05 | 87 | 1012.2 |
| 20260905004503 | 16 | 232 | 4.8 | 14.5 | 0.05 | 0.05 | 0.05 | 86 | 1011.8 |
| 20260905003603 | 16 | 251 | 4.8 | 14.5 | 0.05 | 0.05 | 0.05 | 85 | 1011.6 |
| 20260905002703 | 16 | 257 | 4.8 | 17.7 | 0.03 | 0.03 | 0.03 | 82 | 1012.2 |
| 20260905002012 | 17 | 269 | 6.4 | 19.3 | 0.03 | 0.03 | 0.03 | 79 | 1012.1 |
| 20260905000903 | 18 | 258 | 6.4 | 20.9 | 0.00 | 0.00 | 0.00 | 73 | 1011.6 |
| 20260905000003 | 19 | 264 | 6.4 | 19.3 | 0.00 | 0.00 | 0.00 | 69 | 1011.1 |
| 20260904235404 | 19 | 247 | 6.4 | 20.9 | 0.00 | 0.00 | 0.00 | 68 | 1011.4 |
| 20260904234503 | 19 | 247 | 6.4 | 20.9 | 0.00 | 0.00 | 0.00 | 66 | 1010.9 |
| 20260904233603 | 19 | 248 | 6.4 | 16.1 | 0.00 | 0.00 | 0.00 | 67 | 1010.9 |
| 20260904232703 | 20 | 243 | 6.4 | 17.7 | 0.00 | 0.00 | 0.00 | 68 | 1010.8 |
| 20260904231803 | 20 | 260 | 6.4 | 16.1 | 0.00 | 0.00 | 0.00 | 68 | 1010.6 |
| 20260904231113 | 20 | 244 | 4.8 | 17.7 | 0.00 | 0.00 | 0.00 | 70 | 1010.6 |
| 20260904230003 | 20 | 260 | 4.8 | 17.7 | 0.00 | 0.00 | 0.00 | 69 | 1010.4 |
| 20260904225403 | 20 | 262 | 6.4 | 17.7 | 0.00 | 0.00 | 0.00 | 69 | 1010.6 |
| 20260904224503 | 20 | 268 | 4.8 | 16.1 | 0.00 | 0.00 | 0.00 | 69 | 1010.4 |
| 20260904223603 | 20 | 272 | 4.8 | 9.7 | 0.00 | 0.00 | 0.00 | 69 | 1010.3 |
| 20260904222912 | 21 | 250 | 4.8 | 17.7 | 0.00 | 0.00 | 0.00 | 69 | 1009.7 |
| 20260904221803 | 21 | 303 | 6.4 | 27.4 | 0.00 | 0.00 | 0.00 | 70 | 1009.6 |
| 20260904220903 | 22 | 292 | 8.0 | 27.4 | 0.00 | 0.00 | 0.00 | 69 | 1009.8 |
| 20260904220003 | 23 | 263 | 8.0 | 24.1 | 0.00 | 0.00 | 0.00 | 65 | 1009.6 |
| 20260904215614 | 23 | 270 | 6.4 | 20.9 | 0.00 | 0.00 | 0.00 | 64 | 1009.6 |
| 20260904214504 | 23 | 287 | 6.4 | 17.7 | 0.00 | 0.00 | 0.00 | 61 | 1009.2 |
| 20260904213603 | 23 | 204 | 4.8 | 11.3 | 0.00 | 0.00 | 0.00 | 58 | 1008.1 |
| 20260904212703 | 23 | 194 | 4.8 | 14.5 | 0.00 | 0.00 | 0.00 | 59 | 1007.9 |
| 20260904211803 | 22 | 196 | 3.2 | 11.3 | 0.00 | 0.00 | 0.00 | 61 | 1008.1 |